Location: Titusville
(28.6120°N, 80.8080°W)
Time: 23:26:43
(UTC-05:00)

ISS - Visible Passes

Search period start: 14 December 2017 00:00
Search period end: 24 December 2017 00:00
Orbit: 403 x 406 km, 51.6° (Epoch: 15 December)

Date Brightness Start Highest point End Pass type
(mag) Time Alt. Az. Time Alt. Az. Time Alt. Az.
14 Dec -1.7 19:02:18 10° NNW 19:03:20 18° NNW 19:03:20 18° NNW visible
15 Dec -2.3 18:10:39 10° N 18:13:04 19° NE 18:14:27 15° ENE visible
15 Dec -0.6 19:46:45 10° WNW 19:47:13 13° WNW 19:47:13 13° WNW visible
16 Dec -3.4 18:54:08 10° NW 18:57:22 63° SW 18:58:56 27° SSE visible
17 Dec -3.7 18:01:56 10° NNW 18:05:08 51° NE 18:08:20 10° ESE visible
18 Dec -0.9 18:46:44 10° W 18:49:09 19° SW 18:51:32 10° S visible
19 Dec -2.5 17:53:50 10° WNW 17:56:59 44° SW 18:00:07 10° SSE visible
